Regional Weather Roundup
Issued by NWS

Home | Current Version | Previous Version | Text Only | Print | Product List | Glossary Off
Versions: 1 2 3 4 5 6 7 8 9 10 11 12 13 14 15 16 17 18 19 20 21 22 23 24 25 26 27 28 29 30 31 32 33 34 35 36 37 38 39 40 41 42 43 44 45 46 47 48 49 50

000
ASUS43 KOAX 211810
RWRNE

WEATHER ROUNDUP FOR NEBRASKA
NATIONAL WEATHER SERVICE OMAHA NE
1200 PM CST SUN DEC 21 2014

NOTES: SATELLITE DATA IS BEING USED TO AUGMENT CLOUD COVER ABOVE
       12000 FEET.
       "FAIR" INDICATES FEW OR NO CLOUDS BELOW 12,000 FEET WITH NO
       SIGNIFICANT WEATHER AND/OR OBSTRUCTIONS TO VISIBILITY.

  * THESE STATIONS DO NOT REPORT WEATHER SUCH AS RAIN...SNOW OR FOG.

NEZ001>004-019>022-054>056-211900-
NEBRASKA PANHANDLE

CITY           SKY/WX    TMP DP  RH WIND       PRES   REMARKS
SCOTTSBLUFF    CLOUDY    41  28  60 S7        29.55F
6HR MIN TEMP:  19; 6HR MAX TEMP:  41;

ALLIANCE       PTSUNNY   40  26  57 SW17      29.54F WCI  31
6HR MIN TEMP:  20; 6HR MAX TEMP:  41;

CHADRON        PTSUNNY   40  29  64 S7        29.49F
6HR MIN TEMP:  20; 6HR MAX TEMP:  41;

KIMBALL        CLOUDY    43  24  46 SW13      29.58F
SIDNEY         CLOUDY    39  25  57 SW16      29.60F WCI  30
6HR MIN TEMP:  19; 6HR MAX TEMP:  39;

$$

NEZ057>060-069>072-079>082-211900-
SOUTHWEST NEBRASKA

CITY           SKY/WX    TMP DP  RH WIND       PRES   REMARKS
NORTH PLATTE   MOSUNNY   42  31  64 CALM      29.62F
6HR MIN TEMP:  19; 6HR MAX TEMP:  42;

IMPERIAL       CLOUDY    42  28  57 SW7       29.63F
6HR MIN TEMP:  23; 6HR MAX TEMP:  42;

LEXINGTON      SUNNY     40  34  77 S15       29.67F WCI  32
MCCOOK         SUNNY     45  32  60 S10       29.67F
6HR MIN TEMP:  26; 6HR MAX TEMP:  45;

OGALLALA       CLOUDY    31  26  81 W8        29.62F WCI  24
$$

NEZ005>010-023>029-035>040-094-211900-
NORTH CENTRAL NEBRASKA

CITY           SKY/WX    TMP DP  RH WIND       PRES   REMARKS
VALENTINE      SUNNY     41  29  62 SW10      29.54F
6HR MIN TEMP:  21; 6HR MAX TEMP:  41;

AINSWORTH      SUNNY     37  28  70 S9        29.57F WCI  31
BROKEN BOW     SUNNY     42  34  73 S9        29.63F
6HR MIN TEMP:  25; 6HR MAX TEMP:  42;

O`NEILL        SUNNY     37  32  85 SE10      29.62F WCI  29
THEDFORD       SUNNY     46  30  54 S14       29.59F
$$

NEZ041-046>049-061>064-073>077-083>087-211900-
SOUTH CENTRAL NEBRASKA

CITY           SKY/WX    TMP DP  RH WIND       PRES   REMARKS
GRAND ISLAND   CLOUDY    36  34  92 S20G25    29.74F FOG     WCI  25
6HR MIN TEMP:  31; 6HR MAX TEMP:  36;

AURORA         FOG       37  37 100 S18G24    29.74F VSB 1   WCI  26
HASTINGS       FOG       36  35  96 S17G25    29.74F VSB 3/4 WCI  26
6HR MIN TEMP:  33; 6HR MAX TEMP:  36;

HEBRON         CLOUDY    40  38  92 S15G25    29.80F FOG     WCI  32
HOLDREGE       FOG       33  32  95 S18G30    29.71F VSB 1/2 WCI  22
KEARNEY *      CLOUDY    34  30  86 S20       29.72F VSB 1/2 WCI  22
YORK           CLOUDY    37  37 100 S17G23    29.76F FOG     WCI  28
$$

NEZ011>018-030>034-042>045-211900-
NORTHEAST NEBRASKA

CITY           SKY/WX    TMP DP  RH WIND       PRES   REMARKS
NORFOLK        CLOUDY    39  36  89 S14G22    29.70F WCI  31
6HR MIN TEMP:  32; 6HR MAX TEMP:  39;

ALBION         CLOUDY    37  35  93 S12       29.71F FOG     WCI  29
BLAIR          CLOUDY    41  38  89 S22G28    29.79F FOG
COLUMBUS *     CLOUDY    37  34  87 S16       29.76F WCI  28
FREMONT        CLOUDY    41  38  91 S15G21    29.79F
TEKAMAH        CLOUDY    41  38  89 S24       29.79F
6HR MIN TEMP:  37; 6HR MAX TEMP:  42;

WAYNE          CLOUDY    38  37  92 S21       29.72F FOG     WCI  28
$$

NEZ050>053-065>068-078-088>093-211900-
SOUTHEAST NEBRASKA

CITY           SKY/WX    TMP DP  RH WIND       PRES   REMARKS
LINCOLN        CLOUDY    41  38  89 S21G29    29.80F FOG
6HR MIN TEMP:  39; 6HR MAX TEMP:  41;

OMAHA EPPLEY   CLOUDY    41  38  89 S20G28    29.83F
6HR MIN TEMP:  37; 6HR MAX TEMP:  41;

BEATRICE       CLOUDY    40  38  91 S17G25    29.83F WCI  31
FALLS CITY     CLOUDY    41  38  89 S14G21    29.88F
6HR MIN TEMP:  36; 6HR MAX TEMP:  41;

NEBRASKA CITY  CLOUDY    40  40  99 S20       29.85F FOG     WCI  31
PLATTSMOUTH    CLOUDY    40  37  90 S18       29.84F FOG     WCI  31
$$

NEZ044-045-051>053-067-211900-
OMAHA AREA

CITY           SKY/WX    TMP DP  RH WIND       PRES   REMARKS
OMAHA EPPLEY   CLOUDY    41  38  89 S20G28    29.83F
6HR MIN TEMP:  37; 6HR MAX TEMP:  41;

BLAIR          CLOUDY    41  38  89 S22G28    29.79F FOG
FREMONT        CLOUDY    41  38  91 S15G21    29.79F
MILLARD        CLOUDY    42  38  87 S13G21    29.82F
OFFUTT AFB     CLOUDY    41  37  87 S12       29.82F
PLATTSMOUTH    CLOUDY    40  37  90 S18       29.84F FOG     WCI  31
WAHOO          CLOUDY    40  37  87 S13G20    29.79F FOG     WCI  33
$$



USA.gov is the U.S. government's official web portal to all federal, state and local government web resources and services.